[Date Prev][Date Next][Thread Prev][Thread Next] - [Date Index][Thread Index][Author Index]
2 Line ISS Keps 2-28
- Subject: [sarex] 2 Line ISS Keps 2-28
- From: "Dave Larsen Ph.D." <doc@xxxxxxxxxxx>
- Date: Fri, 28 Feb 2003 02:30:57 -0800
ISS
1 25544U 98067A 03059.18501157 .00025316 00000-0 32533-3 0 7348
2 25544 51.6337 207.7122 0011969 256.2272 97.4190 15.58852655243997
----
Via the sarex mailing list at AMSAT.ORG courtesy of AMSAT-NA.
To unsubscribe, send "unsubscribe sarex" to Majordomo@amsat.org
AMSAT Home